Regional Weather Roundup
Issued by NWS

Home | Current Version | Previous Version | Graphics & Text | Print | Product List | Glossary On
Versions: 1 2 3 4 5 6 7 8 9 10 11 12 13 14 15 16 17 18 19 20 21 22 23 24 25 26 27 28 29 30 31 32 33 34 35 36 37 38 39 40 41 42 43 44 45 46 47 48 49 50
000
ASUS43 KDTX 260801
RWRMI
MICHIGAN HOURLY REGIONAL WEATHER ROUNDUP
NATIONAL WEATHER SERVICE DETROIT/PONTIAC MI
400 AM EDT FRI AUG 26 2016

NOTE: "FAIR" INDICATES FEW OR NO CLOUDS BELOW 12,000 FEET WITH NO
SIGNIFICANT WEATHER AND/OR OBSTRUCTION TO VISIBILITY.

MIZ047>049-052>055-059>063-066>070-074>076-081>083-260900-
SOUTHEAST LOWER MICHIGAN

CITY           SKY/WX    TMP DP  RH WIND       PRES   REMARKS
ADRIAN         FAIR      62  61  96 CALM      30.11R
ALMA           FAIR      61  60  98 CALM      30.08S
ANN ARBOR      FAIR      61  59  93 W3        30.09R
BAD AXE        FAIR      59  58  96 CALM      30.05S
CARO           FAIR      59  58  98 CALM      30.06R
DETROIT CITY   FAIR      68  62  81 W3        30.08R
DETROIT        FAIR      65  61  87 NW3       30.09R
FLINT          FAIR      65  60  84 W6        30.08R
GROSSE ILE     FAIR      67  62  84 NW5       30.07S
HILLSDALE      FAIR      61  59  93 CALM      30.11S
HOWELL         FAIR      62  60  95 W5        30.09S

CITY           SKY/WX    TMP DP  RH WIND       PRES   REMARKS
JACKSON        FAIR      62  62 100 CALM      30.10S
LAMBERTVILLE   FAIR      68  64  88 CALM      30.10R
LANSING        FAIR      63  60  90 CALM      30.09S
LAPEER         FAIR      63  61  94 CALM      30.08R
MASON          FAIR      62  59  90 CALM      30.10S
MONROE         FAIR      62  61  97 NW3       30.08R
MT. CLEMENS    FAIR      66  61  83 W6        30.06R
PONTIAC        MOCLDY    65  60  84 W6        30.08R
PORT HURON     FAIR      61  61 100 CALM      30.07R FOG
TRI CITIES     FAIR      62  59  90 SW7       30.07R
MIDLAND        FAIR      60  58  95 CALM      30.05S
TROY           CLOUDY    68  61  79 CALM      30.10R
SAGINAW HB     FAIR      61  59  94 SW3       30.06S
$$
MIZ043>046-050>051-056>058-064>065-071>073-077>080-260900-
SOUTHWEST LOWER MICHIGAN

CITY           SKY/WX    TMP DP  RH WIND       PRES   REMARKS
BATTLE CREEK   FAIR      62  62 100 S3        30.11S
BENTON HARBOR  FAIR      63  61  93 CALM      30.10R
BIG RAPIDS     FAIR      59  58  97 CALM      30.07S
COLDWATER      FOG       62  62 100 CALM      30.11S VSB 1/2
FREMONT        FAIR      64  63  97 CALM      30.08R
HOLLAND        FAIR      64  63  96 CALM      30.09S
GRAND RAPIDS   FAIR      64  61  90 SW5       30.09S
IONIA          FAIR      61  59  93 SW3       30.08S
KALAMAZOO      FAIR      63  60  90 CALM      30.10S
LUDINGTON      MOCLDY    66  61  82 NW5       30.07R
MARSHALL       MOCLDY    61  59  94 CALM      30.10S VSB 1/4
MOUNT PLEASANT FAIR      63  60  90 SW3       30.06R
MUSKEGON       FAIR      72  64  76 NW8       30.08R
SOUTH HAVEN    FAIR      63  63  98 CALM      30.10R
$$
MIZ016>042-260900-
NORTHERN LOWER MICHIGAN

CITY           SKY/WX    TMP DP  RH WIND       PRES   REMARKS
ALPENA         FAIR      64  57  78 CALM      30.01R
BEAVER ISLAND  FAIR      65  56  73 W9        30.02S
BELLAIRE       FAIR      60  58  94 CALM      30.04R
CADILLAC       FOG       56  55  95 SW3       30.06S VSB 3/4
CHARLEVOIX     FAIR      67  55  65 NW12      30.05S
FRANKFORT      FAIR      68  59  73 NW3       30.05S
GAYLORD        FAIR      64  59  83 NW3       30.05R
GRAYLING       FAIR      62  60  94 W3        30.05R
HARBOR SPRINGS FAIR      62  56  81 CALM      30.02S
HOUGHTON LAKE  FAIR      66  61  84 W9        30.06R
MANISTEE       FAIR      68  60  75 NW8       30.05S
OSCODA         FAIR      61  57  87 SW7       30.01S
PELLSTON       FAIR      61  54  77 W3        30.02R
ROGERS CITY    FAIR      65  59  82 W6        30.01R
TRAVERSE CITY  FAIR      66  61  84 CALM      30.03R
$$
MIZ007>008-015-260900-
EASTERN UPPER MICHIGAN

CITY           SKY/WX    TMP DP  RH WIND       PRES   REMARKS
KINROSS        MOCLDY    58  55  90 W5        30.00R
MACKINAC ISLAN FAIR      62  56  81 W5        30.00S
NEWBERRY       FAIR      58  56  92 W6        30.00R
S. S. MARIE    FAIR      63  58  83 W3        29.98R
MUNISING         N/A     57  54  89 CALM      30.00S
$$
MIZ004>006-011>014-085-260900-
CENTRAL UPPER MICHIGAN

CITY           SKY/WX    TMP DP  RH WIND       PRES   REMARKS
MANISTIQUE     FAIR      58  55  91 W3        30.01S
ESCANABA       FAIR      56  54  93 W3        30.04R
MENOMINEE      FAIR     N/A N/A N/A VRB5      30.07R
SAWYER-GWINN   FAIR      56  51  86 SW5       30.04R
$$
MIZ001>003-009>011-084-260900-
WESTERN UPPER MICHIGAN

CITY           SKY/WX    TMP DP  RH WIND       PRES   REMARKS
IRON MOUNTAIN  FAIR      57  51  80 W6        30.05R
HOUGHTON       MOCLDY    62  56  80 W10       30.00R
COPPER HARBOR    N/A     65  60  84 N12       29.98R
IRONWOOD       FAIR      55  53  93 W7        30.07F
$$

ABBREVIATIONS USED IN REMARKS
   TC - TEMPERATURE IN CELSIUS
  WCI - WIND CHILL INDEX
   HX - HEAT INDEX
  VSB - VISIBILITY




USA.gov is the U.S. government's official web portal to all federal, state and local government web resources and services.